Altoona, PA

6:15 AM EST on December 08, 2019 (GMT -0500)
Altoona-Blair County

Weather History for KAOO - May, 2019

Change the Weather History Date:

Thursday, May 30, 2019

  Actual Average Record
Temperature  
Mean Temperature 69 °F 62 °F  
Max Temperature 75 °F 73 °F 91 °F (2006)
Min Temperature 63 °F 52 °F 34 °F (1966)
Degree Days  
Heating Degree Days 0 5  
Month to date heating degree days 116 238  
Since 1 July heating degree days 5670 6156  
Cooling Degree Days 4 2  
Month to date cooling degree days 67 24  
Year to date cooling degree days 67 30  
Growing Degree Days 18 (Base 50)    
Moisture  
Dew Point 64 °F    
Average Humidity 81    
Maximum Humidity 93    
Minimum Humidity 68    
Precipitation  
Precipitation 0.62 in 0.12 in 2.06 in (1972)
Month to date precipitation 7.28 3.59  
Year to date precipitation 20.09 14.06  
Sea Level Pressure  
Sea Level Pressure 29.78 in    
Wind  
Wind Speed 9 mph (SW)    
Max Wind Speed 26 mph    
Max Gust Speed 34 mph    
Visibility 7 miles    
Events Rain    
T = Trace of Precipitation, MM = Missing Value Source: NWS Daily Summary

Daily Weather History Graph

Daily Weather History Graph

Search for Another Location

Airport or City:

Astronomy

May. 30, 2019 Rise Set
Actual Time 5:46 AM EDT 8:35 PM EDT
Civil Twilight 5:14 AM EDT 9:07 PM EDT
Nautical Twilight 4:34 AM EDT 9:48 PM EDT
Astronomical Twilight 3:47 AM EDT 10:34 PM EDT
Moon 3:52 AM EDT (5/30) 4:40 PM EDT (5/30)
Length of Visible Light 15h 53m
Length of Day
14h 48m
Waning Crescent, 15% of the Moon is Illuminated
May 30
Waning Crescent
Jun 3
New
Jun 10
First Quarter
Jun 17
Full
Jun 25
Last Quarter

Hourly Weather History & Observations

Time (EDT) Temp. Dew Point Humidity Pressure Visibility Wind Dir Wind Speed Gust Speed Precip Events Conditions
12:53 AM 64.0 °F 63.0 °F 96% 29.79 in 5.0 mi Calm Calm - N/A   Scattered Clouds
1:53 AM 64.9 °F 63.0 °F 93% 29.80 in 5.0 mi Calm Calm - N/A   Overcast
2:53 AM 64.9 °F 63.0 °F 93% 29.79 in 6.0 mi Calm Calm - N/A   Overcast
3:24 AM 64.9 °F 63.0 °F 93% 29.83 in 5.0 mi South 4.6 mph - 0.00 in   Overcast
3:53 AM 64.9 °F 63.0 °F 93% 29.79 in 6.0 mi South 4.6 mph - 0.00 in   Mostly Cloudy
4:53 AM 64.9 °F 63.0 °F 93% 29.80 in 5.0 mi West 3.5 mph - N/A   Scattered Clouds
5:18 AM 64.9 °F 64.0 °F 97% 29.82 in 4.0 mi WSW 3.5 mph - N/A   Mostly Cloudy
5:51 AM 64.4 °F 62.6 °F 94% 29.82 in 1.8 mi SW 3.5 mph - N/A   Partly Cloudy
5:52 AM 64.0 °F 63.0 °F 96% 29.80 in 1.8 mi SW 4.6 mph - N/A   Partly Cloudy
6:00 AM 64.0 °F 63.0 °F 96% 29.82 in 3.0 mi SSW 6.9 mph - N/A   Partly Cloudy
6:53 AM 66.0 °F 64.0 °F 93% 29.81 in 7.0 mi SW 5.8 mph - N/A   Partly Cloudy
7:53 AM 66.9 °F 64.0 °F 90% 29.81 in 6.0 mi SW 5.8 mph - N/A   Clear
8:53 AM 68.0 °F 64.9 °F 90% 29.81 in 6.0 mi SW 9.2 mph - N/A   Scattered Clouds
9:53 AM 71.1 °F 64.0 °F 78% 29.80 in 10.0 mi SW 10.4 mph - N/A   Scattered Clouds
10:09 AM 71.1 °F 64.0 °F 78% 29.83 in 10.0 mi SW 9.2 mph - N/A   Mostly Cloudy
10:53 AM 70.0 °F 66.0 °F 87% 29.80 in 6.0 mi South 9.2 mph - 0.01 in Rain Light Rain
11:00 AM 70.0 °F 66.0 °F 87% 29.83 in 7.0 mi SW 9.2 mph - 0.00 in Rain Light Rain
11:07 AM 70.0 °F 66.0 °F 87% 29.82 in 8.0 mi SW 6.9 mph - 0.00 in   Mostly Cloudy
11:53 AM 71.1 °F 64.9 °F 81% 29.79 in 10.0 mi SW 9.2 mph - 0.00 in   Mostly Cloudy
12:53 PM 73.0 °F 64.9 °F 76% 29.76 in 10.0 mi South 8.1 mph - N/A   Overcast
1:03 PM 71.1 °F 66.0 °F 84% 29.78 in 1.8 mi SW 8.1 mph - 0.06 in Rain Heavy Rain
1:07 PM 70.0 °F 64.9 °F 84% 29.79 in 0.5 mi NW 10.4 mph - 0.15 in Rain Heavy Rain
1:22 PM 70.0 °F 66.0 °F 87% 29.78 in 1.2 mi WSW 9.2 mph - 0.55 in Rain Light Rain
1:30 PM 71.1 °F 66.9 °F 87% 29.78 in 4.0 mi SW 9.2 mph - 0.60 in Rain Light Rain
1:53 PM 73.0 °F 66.0 °F 79% 29.75 in 10.0 mi WSW 13.8 mph - 0.60 in   Mostly Cloudy
2:53 PM 73.0 °F 63.0 °F 71% 29.74 in 10.0 mi WSW 11.5 mph - N/A   Scattered Clouds
3:53 PM 72.0 °F 64.0 °F 76% 29.72 in 10.0 mi SW 13.8 mph - 0.00 in   Mostly Cloudy
4:53 PM 72.0 °F 63.0 °F 73% 29.73 in 10.0 mi SW 12.7 mph 18.4 mph N/A   Overcast
5:53 PM 73.0 °F 62.1 °F 68% 29.71 in 10.0 mi West 17.3 mph 21.9 mph N/A   Partly Cloudy
6:53 PM 71.1 °F 62.1 °F 73% 29.70 in 10.0 mi WSW 9.2 mph - N/A   Mostly Cloudy
7:53 PM 70.0 °F 61.0 °F 73% 29.72 in 10.0 mi WSW 11.5 mph - N/A   Scattered Clouds
8:53 PM 70.0 °F 60.1 °F 71% 29.75 in 10.0 mi WSW 15.0 mph 24.2 mph 0.00 in Rain Light Rain
9:53 PM 66.9 °F 60.1 °F 79% 29.74 in 10.0 mi WSW 15.0 mph - 0.01 in   Clear
10:53 PM 66.0 °F 60.1 °F 81% 29.76 in 10.0 mi WSW 10.4 mph - N/A   Partly Cloudy
11:53 PM 66.0 °F 59.0 °F 78% 29.77 in 10.0 mi West 10.4 mph 20.7 mph N/A   Clear